Time,TemperatureF,DewpointF,PressureIn,WindDirection,WindDirectionDegrees,WindSpeedMPH,WindSpeedGustMPH,Humidity,HourlyPrecipIn,Conditions,Clouds,dailyrainin,SoftwareType,DateUTC
2013-03-10 00:02:00,37.0,25.0,30.35,South,183,6.0,-999.0,61,-99.99,,,-99.99,,2013-03-10 05:02:00,
2013-03-10 00:11:00,37.0,25.0,30.35,South,183,6.0,-999.0,61,-99.99,,,-99.99,,2013-03-10 05:11:00,
2013-03-10 00:22:00,37.0,25.0,30.34,SSE,167,5.0,-999.0,62,-99.99,,,-99.99,,2013-03-10 05:22:00,
2013-03-10 00:32:00,37.0,25.0,30.33,SE,139,4.0,-999.0,62,-99.99,,,-99.99,,2013-03-10 05:32:00,
2013-03-10 00:42:00,37.0,26.0,30.33,SSE,161,2.0,-999.0,63,-99.99,,,-99.99,,2013-03-10 05:42:00,
2013-03-10 00:52:00,37.0,26.0,30.33,SSE,161,2.0,-999.0,63,-99.99,,,-99.99,,2013-03-10 05:52:00,
2013-03-10 01:02:00,37.0,26.0,30.32,SSW,197,4.0,-999.0,63,-99.99,,,-99.99,,2013-03-10 06:02:00,
2013-03-10 01:11:00,37.0,26.0,30.32,SSW,197,4.0,-999.0,63,-99.99,,,-99.99,,2013-03-10 06:11:00,
2013-03-10 01:22:00,36.0,25.0,30.32,ESE,123,4.0,-999.0,64,-99.99,,,-99.99,,2013-03-10 06:22:00,
2013-03-10 01:32:00,36.0,25.0,30.32,SSW,202,3.0,-999.0,64,-99.99,,,-99.99,,2013-03-10 06:32:00,
2013-03-10 01:42:00,37.0,26.0,30.32,SSW,206,4.0,-999.0,63,-99.99,,,-99.99,,2013-03-10 06:42:00,
2013-03-10 01:52:00,37.0,26.0,30.32,SSW,206,4.0,-999.0,63,-99.99,,,-99.99,,2013-03-10 06:52:00,
2013-03-10 03:02:00,37.0,25.0,30.31,SW,233,5.0,-999.0,62,-99.99,,,-99.99,,2013-03-10 07:02:00,
2013-03-10 03:11:00,37.0,25.0,30.30,SW,217,5.0,-999.0,62,-99.99,,,-99.99,,2013-03-10 07:11:00,
2013-03-10 03:21:00,37.0,25.0,30.30,SW,217,5.0,-999.0,62,-99.99,,,-99.99,,2013-03-10 07:21:00,
2013-03-10 03:32:00,37.0,25.0,30.30,SSE,163,6.0,-999.0,62,-99.99,,,-99.99,,2013-03-10 07:32:00,
2013-03-10 03:42:00,37.0,25.0,30.29,SSW,203,7.0,-999.0,61,-99.99,,,-99.99,,2013-03-10 07:42:00,
2013-03-10 03:52:00,37.0,25.0,30.29,SSW,203,7.0,-999.0,61,-99.99,,,-99.99,,2013-03-10 07:52:00,
2013-03-10 04:02:00,36.0,24.0,30.29,South,176,8.0,-999.0,61,-99.99,,,-99.99,,2013-03-10 08:02:00,
2013-03-10 04:11:00,36.0,24.0,30.29,South,176,8.0,-999.0,61,-99.99,,,-99.99,,2013-03-10 08:11:00,
2013-03-10 04:21:00,36.0,24.0,30.29,South,169,8.0,-999.0,61,-99.99,,,-99.99,,2013-03-10 08:21:00,
2013-03-10 04:32:00,35.0,24.0,30.28,South,169,8.0,-999.0,63,-99.99,,,-99.99,,2013-03-10 08:32:00,
2013-03-10 04:42:00,35.0,24.0,30.28,South,169,8.0,-999.0,63,-99.99,,,-99.99,,2013-03-10 08:42:00,
2013-03-10 04:51:00,36.0,24.0,30.28,SW,216,7.0,-999.0,62,-99.99,,,-99.99,,2013-03-10 08:51:00,
2013-03-10 05:02:00,36.0,24.0,30.27,South,186,9.0,-999.0,61,-99.99,,,-99.99,,2013-03-10 09:02:00,
2013-03-10 05:11:00,36.0,24.0,30.27,South,186,9.0,-999.0,61,-99.99,,,-99.99,,2013-03-10 09:11:00,
2013-03-10 05:21:00,36.0,24.0,30.27,South,182,8.0,-999.0,62,-99.99,,,-99.99,,2013-03-10 09:21:00,
2013-03-10 05:31:00,36.0,25.0,30.26,South,170,7.0,-999.0,64,-99.99,,,-99.99,,2013-03-10 09:31:00,
2013-03-10 05:41:00,36.0,25.0,30.26,South,170,7.0,-999.0,64,-99.99,,,-99.99,,2013-03-10 09:41:00,
2013-03-10 05:51:00,36.0,25.0,30.26,South,180,5.0,-999.0,64,-99.99,,,-99.99,,2013-03-10 09:51:00,
2013-03-10 06:02:00,35.0,24.0,30.26,SSW,203,8.0,-999.0,65,-99.99,,,-99.99,,2013-03-10 10:02:00,
2013-03-10 06:11:00,35.0,24.0,30.26,SSW,203,8.0,-999.0,65,-99.99,,,-99.99,,2013-03-10 10:11:00,
2013-03-10 06:21:00,35.0,24.0,30.26,South,170,8.0,-999.0,65,-99.99,,,-99.99,,2013-03-10 10:21:00,
2013-03-10 06:32:00,35.0,25.0,30.26,SSE,159,4.0,-999.0,67,-99.99,,,-99.99,,2013-03-10 10:32:00,
2013-03-10 06:42:00,35.0,25.0,30.26,SSW,206,5.0,-999.0,67,-99.99,,,-99.99,,2013-03-10 10:42:00,
2013-03-10 06:52:00,35.0,25.0,30.26,SSW,206,5.0,-999.0,67,-99.99,,,-99.99,,2013-03-10 10:52:00,
2013-03-10 07:01:00,36.0,26.0,30.26,SSE,154,6.0,-999.0,66,-99.99,,,-99.99,,2013-03-10 11:01:00,
2013-03-10 07:12:00,36.0,25.0,30.26,South,175,10.0,-999.0,63,-99.99,,,-99.99,,2013-03-10 11:12:00,
2013-03-10 07:21:00,36.0,25.0,30.26,South,175,10.0,-999.0,63,-99.99,,,-99.99,,2013-03-10 11:21:00,
2013-03-10 07:32:00,36.0,25.0,30.26,SW,222,10.0,-999.0,63,-99.99,,,-99.99,,2013-03-10 11:32:00,
2013-03-10 07:42:00,36.0,25.0,30.26,SW,222,10.0,-999.0,63,-99.99,,,-99.99,,2013-03-10 11:42:00,
2013-03-10 07:52:00,37.0,25.0,30.26,South,173,8.0,-999.0,61,-99.99,,,-99.99,,2013-03-10 11:52:00,
2013-03-10 08:02:00,37.0,26.0,30.27,South,190,7.0,-999.0,63,-99.99,,,-99.99,,2013-03-10 12:02:00,
2013-03-10 08:11:00,37.0,26.0,30.27,South,190,7.0,-999.0,63,-99.99,,,-99.99,,2013-03-10 12:11:00,
2013-03-10 08:21:00,37.0,26.0,30.27,SW,222,13.0,-999.0,64,-99.99,,,-99.99,,2013-03-10 12:21:00,
2013-03-10 08:31:00,37.0,26.0,30.27,South,188,9.0,-999.0,63,-99.99,,,-99.99,,2013-03-10 12:31:00,
2013-03-10 08:42:00,37.0,26.0,30.27,South,188,9.0,-999.0,63,-99.99,,,-99.99,,2013-03-10 12:42:00,
2013-03-10 08:51:00,37.0,25.0,30.27,SW,229,6.0,-999.0,62,-99.99,,,-99.99,,2013-03-10 12:51:00,
2013-03-10 09:01:00,38.0,26.0,30.28,SSW,210,6.0,-999.0,61,-99.99,,,-99.99,,2013-03-10 13:01:00,
2013-03-10 09:11:00,38.0,26.0,30.28,SSW,210,6.0,-999.0,61,-99.99,,,-99.99,,2013-03-10 13:11:00,
2013-03-10 09:21:00,38.0,26.0,30.27,SE,128,6.0,-999.0,61,-99.99,,,-99.99,,2013-03-10 13:21:00,
2013-03-10 09:32:00,39.0,26.0,30.27,South,188,9.0,-999.0,60,-99.99,,,-99.99,,2013-03-10 13:32:00,
2013-03-10 09:41:00,39.0,26.0,30.27,South,188,9.0,-999.0,60,-99.99,,,-99.99,,2013-03-10 13:41:00,
2013-03-10 09:52:00,39.0,26.0,30.27,SW,216,11.0,-999.0,59,-99.99,,,-99.99,,2013-03-10 13:52:00,
2013-03-10 10:02:00,39.0,26.0,30.29,SSW,197,10.0,-999.0,60,-99.99,,,-99.99,,2013-03-10 14:02:00,
2013-03-10 10:11:00,39.0,26.0,30.29,SSW,197,10.0,-999.0,60,-99.99,,,-99.99,,2013-03-10 14:11:00,
2013-03-10 10:22:00,39.0,27.0,30.28,SW,217,8.0,-999.0,61,-99.99,,,-99.99,,2013-03-10 14:22:00,
2013-03-10 10:32:00,39.0,27.0,30.29,South,191,7.0,-999.0,61,-99.99,,,-99.99,,2013-03-10 14:32:00,
2013-03-10 10:42:00,39.0,27.0,30.29,South,191,7.0,-999.0,61,-99.99,,,-99.99,,2013-03-10 14:42:00,
2013-03-10 10:51:00,39.0,27.0,30.29,South,186,8.0,-999.0,63,-99.99,,,-99.99,,2013-03-10 14:51:00,
2013-03-10 11:01:00,39.0,26.0,30.28,South,179,9.0,-999.0,59,-99.99,,,-99.99,,2013-03-10 15:01:00,
2013-03-10 11:11:00,39.0,26.0,30.28,South,179,9.0,-999.0,59,-99.99,,,-99.99,,2013-03-10 15:11:00,
2013-03-10 11:21:00,39.0,27.0,30.29,SSW,213,11.0,-999.0,62,-99.99,,,-99.99,,2013-03-10 15:21:00,
2013-03-10 11:32:00,39.0,27.0,30.29,SSW,206,9.0,-999.0,63,-99.99,,,-99.99,,2013-03-10 15:32:00,
2013-03-10 11:42:00,39.0,27.0,30.29,SSW,206,9.0,-999.0,63,-99.99,,,-99.99,,2013-03-10 15:42:00,
2013-03-10 11:52:00,40.0,28.0,30.29,SW,216,7.0,-999.0,61,-99.99,,,-99.99,,2013-03-10 15:52:00,
2013-03-10 12:02:00,41.0,27.0,30.29,SW,221,10.0,-999.0,56,-99.99,,,-99.99,,2013-03-10 16:02:00,
2013-03-10 12:12:00,41.0,27.0,30.29,SW,221,10.0,-999.0,56,-99.99,,,-99.99,,2013-03-10 16:12:00,
2013-03-10 12:21:00,41.0,27.0,30.28,SW,231,7.0,-999.0,57,-99.99,,,-99.99,,2013-03-10 16:21:00,
2013-03-10 12:32:00,43.0,27.0,30.28,South,187,7.0,-999.0,52,-99.99,,,-99.99,,2013-03-10 16:32:00,
2013-03-10 12:41:00,43.0,27.0,30.28,South,187,7.0,-999.0,52,-99.99,,,-99.99,,2013-03-10 16:41:00,
2013-03-10 12:51:00,43.0,27.0,30.27,SW,234,6.0,-999.0,53,-99.99,,,-99.99,,2013-03-10 16:51:00,
2013-03-10 13:01:00,45.0,29.0,30.27,SSW,213,1.0,-999.0,53,-99.99,,,-99.99,,2013-03-10 17:01:00,
2013-03-10 13:11:00,45.0,29.0,30.27,SSW,213,1.0,-999.0,53,-99.99,,,-99.99,,2013-03-10 17:11:00,
2013-03-10 13:21:00,46.0,27.0,30.26,South,169,2.0,-999.0,48,-99.99,,,-99.99,,2013-03-10 17:21:00,
2013-03-10 13:32:00,46.0,28.0,30.26,South,185,6.0,-999.0,49,-99.99,,,-99.99,,2013-03-10 17:32:00,
2013-03-10 13:41:00,46.0,28.0,30.26,South,185,6.0,-999.0,49,-99.99,,,-99.99,,2013-03-10 17:41:00,
2013-03-10 13:51:00,46.0,28.0,30.25,WSW,240,3.0,-999.0,50,-99.99,,,-99.99,,2013-03-10 17:51:00,
2013-03-10 14:01:00,48.0,28.0,30.24,SSW,202,2.0,-999.0,46,-99.99,,,-99.99,,2013-03-10 18:01:00,
2013-03-10 14:11:00,48.0,28.0,30.24,SSW,202,2.0,-999.0,46,-99.99,,,-99.99,,2013-03-10 18:11:00,
2013-03-10 14:22:00,50.0,28.0,30.24,SW,219,5.0,-999.0,43,-99.99,,,-99.99,,2013-03-10 18:22:00,
2013-03-10 14:32:00,49.0,29.0,30.23,South,172,4.0,-999.0,46,-99.99,,,-99.99,,2013-03-10 18:32:00,
2013-03-10 14:42:00,49.0,29.0,30.23,South,172,4.0,-999.0,46,-99.99,,,-99.99,,2013-03-10 18:42:00,
2013-03-10 14:52:00,49.0,28.0,30.22,South,171,3.0,-999.0,44,-99.99,,,-99.99,,2013-03-10 18:52:00,
2013-03-10 15:02:00,48.0,30.0,30.22,SSE,150,1.0,-999.0,49,-99.99,,,-99.99,,2013-03-10 19:02:00,
2013-03-10 15:11:00,48.0,30.0,30.22,SSE,150,1.0,-999.0,49,-99.99,,,-99.99,,2013-03-10 19:11:00,
2013-03-10 15:21:00,48.0,30.0,30.21,ENE,77,3.0,-999.0,49,-99.99,,,-99.99,,2013-03-10 19:21:00,
2013-03-10 15:32:00,46.0,30.0,30.20,East,101,5.0,-999.0,53,-99.99,,,-99.99,,2013-03-10 19:32:00,
2013-03-10 15:42:00,46.0,30.0,30.20,East,101,5.0,-999.0,53,-99.99,,,-99.99,,2013-03-10 19:42:00,
2013-03-10 15:52:00,46.0,31.0,30.20,East,94,7.0,-999.0,55,-99.99,,,-99.99,,2013-03-10 19:52:00,
2013-03-10 16:02:00,46.0,30.0,30.19,ESE,117,8.0,-999.0,53,-99.99,,,-99.99,,2013-03-10 20:02:00,
2013-03-10 16:12:00,46.0,30.0,30.19,ESE,117,8.0,-999.0,53,-99.99,,,-99.99,,2013-03-10 20:12:00,
2013-03-10 16:22:00,45.0,30.0,30.18,ENE,66,10.0,-999.0,55,-99.99,,,-99.99,,2013-03-10 20:22:00,
2013-03-10 16:32:00,45.0,28.0,30.18,East,101,9.0,-999.0,52,-99.99,,,-99.99,,2013-03-10 20:32:00,
2013-03-10 16:43:00,45.0,28.0,30.18,East,101,9.0,-999.0,52,-99.99,,,-99.99,,2013-03-10 20:43:00,
2013-03-10 16:52:00,46.0,29.0,30.17,ENE,67,11.0,-999.0,52,-99.99,,,-99.99,,2013-03-10 20:52:00,
2013-03-10 17:02:00,46.0,29.0,30.16,NE,55,10.0,-999.0,52,-99.99,,,-99.99,,2013-03-10 21:02:00,
2013-03-10 17:12:00,46.0,29.0,30.16,NE,55,10.0,-999.0,52,-99.99,,,-99.99,,2013-03-10 21:12:00,
2013-03-10 17:23:00,45.0,29.0,30.16,ENE,75,10.0,-999.0,53,-99.99,,,-99.99,,2013-03-10 21:23:00,
2013-03-10 17:32:00,45.0,28.0,30.17,ESE,104,8.0,-999.0,52,-99.99,,,-99.99,,2013-03-10 21:32:00,
2013-03-10 17:42:00,45.0,28.0,30.17,ESE,104,8.0,-999.0,52,-99.99,,,-99.99,,2013-03-10 21:42:00,
2013-03-10 17:52:00,45.0,28.0,30.17,ENE,73,6.0,-999.0,52,-99.99,,,-99.99,,2013-03-10 21:52:00,
2013-03-10 18:03:00,45.0,29.0,30.17,ENE,68,6.0,-999.0,53,-99.99,,,-99.99,,2013-03-10 22:03:00,
2013-03-10 18:12:00,45.0,29.0,30.17,ENE,68,6.0,-999.0,53,-99.99,,,-99.99,,2013-03-10 22:12:00,
2013-03-10 18:22:00,44.0,28.0,30.17,East,90,6.0,-999.0,54,-99.99,,,-99.99,,2013-03-10 22:22:00,
2013-03-10 18:32:00,43.0,29.0,30.17,ENE,75,7.0,-999.0,57,-99.99,,,-99.99,,2013-03-10 22:32:00,
2013-03-10 18:43:00,43.0,29.0,30.17,ENE,75,7.0,-999.0,57,-99.99,,,-99.99,,2013-03-10 22:43:00,
2013-03-10 18:52:00,43.0,29.0,30.17,ESE,123,7.0,-999.0,57,-99.99,,,-99.99,,2013-03-10 22:52:00,
2013-03-10 19:03:00,43.0,29.0,30.17,SSW,198,6.0,-999.0,57,-99.99,,,-99.99,,2013-03-10 23:03:00,
2013-03-10 19:12:00,42.0,28.0,30.17,SW,218,6.0,-999.0,58,-99.99,,,-99.99,,2013-03-10 23:12:00,
2013-03-10 19:23:00,42.0,28.0,30.17,SW,218,6.0,-999.0,58,-99.99,,,-99.99,,2013-03-10 23:23:00,
2013-03-10 19:33:00,42.0,29.0,30.17,SE,128,7.0,-999.0,59,-99.99,,,-99.99,,2013-03-10 23:33:00,
2013-03-10 19:42:00,42.0,29.0,30.17,SE,128,7.0,-999.0,59,-99.99,,,-99.99,,2013-03-10 23:42:00,
2013-03-10 19:52:00,41.0,28.0,30.16,SSE,163,8.0,-999.0,60,-99.99,,,-99.99,,2013-03-10 23:52:00,
2013-03-10 20:03:00,41.0,29.0,30.16,South,174,8.0,-999.0,61,-99.99,,,-99.99,,2013-03-11 00:03:00,
2013-03-10 20:13:00,41.0,29.0,30.16,South,174,8.0,-999.0,61,-99.99,,,-99.99,,2013-03-11 00:13:00,
2013-03-10 20:23:00,41.0,29.0,30.16,SSW,202,11.0,-999.0,61,-99.99,,,-99.99,,2013-03-11 00:23:00,
2013-03-10 20:33:00,41.0,29.0,30.18,SE,127,12.0,-999.0,61,-99.99,,,-99.99,,2013-03-11 00:33:00,
2013-03-10 20:43:00,41.0,29.0,30.18,SE,127,12.0,-999.0,61,-99.99,,,-99.99,,2013-03-11 00:43:00,
2013-03-10 20:52:00,41.0,29.0,30.18,SSE,157,12.0,-999.0,61,-99.99,,,-99.99,,2013-03-11 00:52:00,
2013-03-10 21:03:00,41.0,28.0,30.17,South,175,12.0,-999.0,60,-99.99,,,-99.99,,2013-03-11 01:03:00,
2013-03-10 21:13:00,41.0,28.0,30.17,South,175,12.0,-999.0,60,-99.99,,,-99.99,,2013-03-11 01:13:00,
2013-03-10 21:23:00,41.0,29.0,30.17,SE,133,13.0,-999.0,61,-99.99,,,-99.99,,2013-03-11 01:23:00,
2013-03-10 21:32:00,41.0,29.0,30.17,SE,133,13.0,-999.0,61,-99.99,,,-99.99,,2013-03-11 01:32:00,
2013-03-10 21:43:00,41.0,29.0,30.17,SE,133,13.0,-999.0,61,-99.99,,,-99.99,,2013-03-11 01:43:00,
2013-03-10 21:52:00,41.0,29.0,30.16,SE,143,12.0,-999.0,62,-99.99,,,-99.99,,2013-03-11 01:52:00,
2013-03-10 22:03:00,41.0,29.0,30.16,SSE,161,13.0,-999.0,62,-99.99,,,-99.99,,2013-03-11 02:03:00,
2013-03-10 22:12:00,41.0,29.0,30.16,SSE,161,13.0,-999.0,62,-99.99,,,-99.99,,2013-03-11 02:12:00,
2013-03-10 22:23:00,41.0,29.0,30.16,South,171,12.0,-999.0,63,-99.99,,,-99.99,,2013-03-11 02:23:00,
2013-03-10 22:32:00,41.0,29.0,30.16,South,187,13.0,-999.0,62,-99.99,,,-99.99,,2013-03-11 02:32:00,
2013-03-10 22:42:00,41.0,29.0,30.16,South,187,13.0,-999.0,62,-99.99,,,-99.99,,2013-03-11 02:42:00,
2013-03-10 22:52:00,41.0,29.0,30.16,South,188,14.0,-999.0,62,-99.99,,,-99.99,,2013-03-11 02:52:00,
2013-03-10 23:02:00,41.0,29.0,30.15,SE,139,12.0,-999.0,62,-99.99,,,-99.99,,2013-03-11 03:02:00,
2013-03-10 23:12:00,41.0,29.0,30.15,SE,139,12.0,-999.0,62,-99.99,,,-99.99,,2013-03-11 03:12:00,
2013-03-10 23:22:00,40.0,28.0,30.16,SSW,193,12.0,-999.0,62,-99.99,,,-99.99,,2013-03-11 03:22:00,
2013-03-10 23:32:00,40.0,28.0,30.16,South,185,13.0,-999.0,62,-99.99,,,-99.99,,2013-03-11 03:32:00,
2013-03-10 23:42:00,40.0,28.0,30.16,South,185,13.0,-999.0,62,-99.99,,,-99.99,,2013-03-11 03:42:00,
2013-03-10 23:52:00,40.0,28.0,30.15,SE,146,11.0,-999.0,62,-99.99,,,-99.99,,2013-03-11 03:52:00,